Regional Weather Roundup
Issued by NWS

Home | Current Version | Previous Version | Text Only | Print | Product List | Glossary On
Versions: 1 2 3 4 5 6 7 8 9 10 11 12 13 14 15 16 17 18 19 20 21 22 23 24 25 26 27 28
000
ASUS46 KSEW 240510
RWRWA

WASHINGTON REGIONAL WEATHER ROUNDUP
NATIONAL WEATHER SERVICE SEATTLE WA
1000 PM PDT TUE AUG 23 2016

NOTE:"FAIR" INDICATES FEW OR NO CLOUDS BELOW 12,000 FEET WITH NO
SIGNIFICANT WEATHER AND/OR OBSTRUCTIONS TO VISIBILITY.

WAZ505-507>509-240600-
SEATTLE, TACOMA, EVERETT, AND VICINITY

CITY           SKY/WX    TMP DP  RH WIND       PRES   REMARKS
EVERETT        CLEAR     64  51  62 N6        30.20S
BOEING FIELD   PTCLDY    68  52  56 NW7       30.17R
RENTON         CLEAR     71  55  56 N3        30.17R
SEATAC AIRPORT CLEAR     69  52  54 N5        30.19R
JBLM-MCCHORD   CLEAR     67  51  56 CALM      30.18R
PUYALLUP       FAIR      61  54  77 CALM      30.19R
BREMERTON      CLEAR     57  50  77 CALM      30.24R
JBLM-FT LEWIS  CLEAR     67  52  57 CALM      30.18R
TACOMA NARROWS CLEAR     64  50  60 N6        30.19R
$$

WAZ001-503-506-510-514-515-240600-
NORTH INTERIOR

CITY           SKY/WX    TMP DP  RH WIND       PRES   REMARKS
BELLINGHAM     CLEAR     60  55  83 CALM      30.18R
FRIDAY HARBOR  CLEAR     56  50  80 CALM      30.19S
EASTSOUND      CLEAR     61  52  72 CALM      30.17R
PORT ANGELES   CLEAR     59  49  69 W5        30.20S
EDIZ HOOK      FAIR      59  49  69 W8        30.20R
PORT TOWNSEND  FAIR      59  50  72 CALM      30.19S
NAS WHIDBEY    PTCLDY    59  49  69 SW5       30.23R
ARLINGTON      CLEAR     63  46  55 NW5       30.20S
BURLINGTON     CLEAR     61  52  72 CALM      30.18S
$$

WAZ020-022-039-040-504-511-512-240600-
SOUTHWEST INTERIOR

CITY           SKY/WX    TMP DP  RH WIND       PRES   REMARKS
SHELTON        CLEAR     65  52  62 NW3       30.17R
OLYMPIA        CLEAR     69  49  48 NE6       30.18R
CHEHALIS       FAIR      66  55  68 NE6       30.17S
KELSO          CLEAR     69  54  58 VRB3      30.16R
VANCOUVER      CLEAR     73  51  46 NW8       30.11R
SCAPPOOSE, OR  CLEAR     73  49  42 NW10      30.11R
PORTLAND, OR   CLEAR     73  52  47 NW9       30.12R
$$

WAZ021-516-517-240600-
WASHINGTON COAST

CITY           SKY/WX    TMP DP  RH WIND       PRES   REMARKS
FORKS          CLEAR     57  51  80 CALM      30.19S
HOQUIAM        CLEAR     58  54  86 W5        30.20R
ASTORIA, OR    CLEAR     58  52  80 S3        30.19R
$$

WAZ019-023-024-040-518-519-240600-
CASCADE MOUNTAINS AND COLUMBIA GORGE

CITY           SKY/WX    TMP DP  RH WIND       PRES   REMARKS
STAMPEDE PASS  CLEAR     53  45  74 SW5       30.29R
TROUTDALE, OR  CLEAR     72  49  44 W3        30.11R
THE DALLES, OR CLEAR     70  43  37 CALM      30.09R
$$

WAZ026-027-041>044-520-521-240600-
EAST SLOPES

CITY           SKY/WX    TMP DP  RH WIND       PRES   REMARKS
OMAK           CLEAR     66  39  37 NW8       30.16R
WENATCHEE      CLOUDY    73  41  31 CALM      30.12R
ELLENSBURG     CLEAR     68  47  46 NW14      30.16R
YAKIMA         CLEAR     66  49  54 W8        30.14R
$$

WAZ028-034-035-240600-
COLUMBIA BASIN

CITY           SKY/WX    TMP DP  RH WIND       PRES   REMARKS
EPHRATA        CLEAR     74  40  29 NW6       30.12R
MOSES LAKE     CLEAR     68  41  37 NW7       30.12R
PASCO          CLEAR     67  50  54 CALM      30.09R
HERMISTON, OR  CLEAR     62  43  49 S6        30.10R
$$

WAZ036>038-240600-
NORTHEAST WASHINGTON

CITY           SKY/WX    TMP DP  RH WIND       PRES   REMARKS
SPOKANE GEIGER PTCLDY    65  37  35 SW3       30.15R
SPOKANE FELTS  CLEAR     61  41  47 NE5       30.14R
FAIRCHILD AFB  CLOUDY    64  40  41 SW2       30.15S
COEURDALENE,ID CLEAR     61  43  51 N8        30.15R
DEER PARK      CLOUDY    67  41  38 N9        30.17R
$$

WAZ029>033-240600-
SOUTHEAST WASHINGTON

CITY           SKY/WX    TMP DP  RH WIND       PRES   REMARKS
PULLMAN        CLEAR     56  37  49 CALM      30.18R
LEWISTON, ID   CLEAR     69  38  32 S7        30.12R
WALLA WALLA    CLEAR     67  44  43 SE7       30.12S
PENDLETON, OR  CLEAR     63  39  41 SE7       30.14R
$$




USA.gov is the U.S. government's official web portal to all federal, state and local government web resources and services.